Weather History for Massena, NY

Change the Weather History Date:

Monday, February 17, 2014

  Actual Average Record
Temperature  
Mean Temperature 1 °F 18 °F  
Max Temperature 17 °F 29 °F 47 °F (1981)
Min Temperature -15 °F 8 °F -29 °F (1973)
Degree Days  
Heating Degree Days 64 47  
Month to date heating degree days 896 827  
Since 1 July heating degree days 5678 5490  
Moisture  
Dew Point -12 °F    
Average Humidity 55    
Maximum Humidity 77    
Minimum Humidity 33    
Precipitation  
Precipitation 0.00 in 0.06 in 0.60 in (1954)
Month to date precipitation 0.64 1.02  
Year to date precipitation 2.10 3.20  
Sea Level Pressure  
Sea Level Pressure 30.40 in    
Wind  
Wind Speed 5 mph (West)    
Max Wind Speed 9 mph    
Max Gust Speed 12 mph    
Visibility 10 miles    
Events      
T = Trace of Precipitation, MM = Missing Value Source: NWS Daily Summary

Daily Weather History Graph

Daily Weather History Graph

Search for Another Location

Airport:

Trip Planner

Search our weather history database for the weather conditions in past years. The results will help you decide how hot, cold, wet, or windy it might be!

Date:

Astronomy

Feb. 17, 2014 Rise Set
Actual Time 6:57 AM EST 5:30 PM EST
Civil Twilight 6:27 AM EST 6:00 PM EST
Nautical Twilight 5:52 AM EST 6:34 PM EST
Astronomical Twilight 5:18 AM EST 7:08 PM EST
Moon 8:32 PM EST (2/17) 7:48 AM EST (2/17)
Length of Visible Light 11h 33m
Length of Day
10h 33m
Waning Gibbous, 93% of the Moon is Illuminated
Feb 17
Waning Gibbous
Feb 22
Last Quarter
Mar 1
New
Mar 8
First Quarter
Mar 16
Full

Hourly Weather History & Observations

Time (EST) Temp. Windchill Dew Point Humidity Pressure Visibility Wind Dir Wind Speed Gust Speed Precip Events Conditions
12:53 AM 3.9 °F -8.2 °F -9.9 °F 53% 30.26 in 10.0 mi West 6.9 mph - N/A   Clear
1:53 AM -6.0 °F -18.6 °F -14.1 °F 68% 30.29 in 10.0 mi WSW 5.8 mph - N/A   Clear
2:53 AM -2.0 °F -12.2 °F -11.0 °F 66% 30.31 in 10.0 mi West 4.6 mph - N/A   Clear
3:53 AM -2.9 °F -16.5 °F -11.9 °F 65% 30.32 in 10.0 mi West 6.9 mph - N/A   Clear
4:53 AM -0.0 °F -13.0 °F -11.0 °F 60% 30.37 in 10.0 mi WSW 6.9 mph - N/A   Clear
5:53 AM -9.9 °F -19.2 °F -17.0 °F 71% 30.40 in 10.0 mi WSW 3.5 mph - N/A   Clear
6:53 AM -13.0 °F -22.7 °F -18.0 °F 78% 30.44 in 10.0 mi WSW 3.5 mph - N/A   Clear
7:53 AM -7.1 °F -19.9 °F -13.0 °F 75% 30.47 in 10.0 mi West 5.8 mph - N/A   Clear
8:53 AM 1.9 °F -10.6 °F -9.9 °F 58% 30.49 in 10.0 mi West 6.9 mph - N/A   Clear
9:53 AM 3.9 °F -8.2 °F -9.9 °F 53% 30.50 in 10.0 mi WNW 6.9 mph - N/A   Clear
10:53 AM 6.1 °F -5.6 °F -9.0 °F 50% 30.50 in 10.0 mi West 6.9 mph - N/A   Clear
11:53 AM 9.0 °F -3.2 °F -9.0 °F 44% 30.49 in 10.0 mi WSW 8.1 mph - N/A   Clear
12:53 PM 12.0 °F 1.5 °F -8.0 °F 41% 30.48 in 10.0 mi Variable 6.9 mph - N/A   Clear
1:53 PM 12.9 °F 1.6 °F -8.0 °F 39% 30.48 in 10.0 mi West 8.1 mph - N/A   Clear
2:53 PM 16.0 °F - -9.9 °F 31% 30.45 in 10.0 mi Calm Calm - N/A   Clear
3:53 PM 15.1 °F - -9.0 °F 34% 30.43 in 10.0 mi Calm Calm - N/A   Clear
4:53 PM 15.1 °F 9.4 °F -9.9 °F 32% 30.42 in 10.0 mi WNW 3.5 mph - N/A   Clear
5:53 PM 1.9 °F - -11.0 °F 55% 30.42 in 10.0 mi Calm Calm - N/A   Clear
6:53 PM -2.9 °F -11.2 °F -11.0 °F 68% 30.42 in 10.0 mi NE 3.5 mph - N/A   Clear
7:53 PM -7.1 °F - -13.0 °F 75% 30.40 in 10.0 mi Calm Calm - N/A   Clear
8:53 PM -2.9 °F -13.3 °F -13.0 °F 62% 30.33 in 10.0 mi ENE 4.6 mph - N/A   Clear
9:53 PM -0.0 °F - -11.9 °F 57% 30.30 in 10.0 mi Calm Calm - N/A   Clear
10:53 PM -7.1 °F -18.1 °F -14.1 °F 72% 30.28 in 10.0 mi NE 4.6 mph - N/A   Clear
11:53 PM -8.0 °F -19.2 °F -15.0 °F 71% 30.27 in 10.0 mi NE 4.6 mph - N/A   Clear